Location: ???????
(55.4231°N, 38.5570°E)
Time: 14:26:12
(UTC+00:00)

CZ-2D R/B - Pass Details

Date: 05 August 2024
Orbit: 791 x 842 km, 98.8° (Epoch: 18 September)

Event Time Altitude Azimuth Distance (km) Brightness Sun altitude
Rises 23:59:49 0° 16° (NNE) 3,313 6.8 -11.2°
Reaches altitude 10° 00:02:09 10° 15° (NNE) 2,384 5.8 -11.0°
Maximum altitude 00:07:25 81° 290° (WNW) 821 2.1 -10.6°
Enters shadow 00:12:22 12° 203° (SSW) 2,255 3.8 -10.1°
